[[{"header":{"parameterUnit":"m.s-1","parameterCategory":1,"la1":30.2991,"la2":30.254,"lo1":-89.0895,"lo2":-89.0444,"dy":0.0017,"dx":0.0017,"nx":28,"ny":28,"refTime":"2023-09-20T21:00:00:Z","depth":0,"parameterNumber":2,"parameterNumberName":"U-component_of_WINDS"},"data":[0,0,0,0,0,0,0,0,0,0,0,0,0,0,0,0,0,0,0,0,0,0,0,0,0,0,0,0,0,0,0,0,0,0,0,0,0,0,0,0,0,0,0,0,0,0,0,0,0,0,0,0,0,0,0,0,0,0,-5.2754,-5.2754,0,-5.2775,-5.2775,-5.2775,-5.2632,-5.2628,-5.2624,-5.262,-5.264,-5.2644,-5.2648,0,0,0,0,0,0,0,0,0,0,0,0,0,-5.2588,-5.2592,-5.2754,-5.2754,-5.2755,-5.2775,-5.2775,-5.2775,-5.2633,-5.2628,-5.2623,-5.2618,-5.2638,-5.2643,-5.2648,0,0,0,0,0,0,0,0,0,0,0,0,0,-5.264,-5.2593,-5.2754,-5.2686,-5.268,-5.2775,-5.2775,-5.2775,-5.2634,-5.2628,-5.2622,-5.2616,-5.2637,-5.2643,-5.2649,-5.2809,0,0,-5.2669,-5.2671,0,0,0,0,0,0,0,0,-5.2637,-5.2646,-5.2696,-5.2691,-5.2684,-5.2695,-5.2723,-5.2787,-5.2635,-5.2651,-5.262,-5.2613,-5.2663,-5.2667,-5.2684,-5.281,-5.2811,-5.2669,-5.2673,-5.2676,-5.2678,0,0,0,0,0,0,0,-5.2634,-5.2644,-5.2762,-5.2697,-5.269,-5.2653,-5.2654,-5.2735,-5.2691,-5.2649,-5.2639,-5.2644,-5.2658,-5.2678,-5.2683,-5.2811,-5.2669,-5.2675,-5.2679,-5.2681,-5.3069,-5.3075,0,0,0,0,0,0,-5.264,-5.2642,-5.2761,-5.2763,-5.2645,-5.2661,-5.2662,-5.2697,-5.2689,-5.2682,-5.2649,-5.2637,-5.267,-5.2676,-5.2683,-5.2869,-5.2676,-5.2682,-5.2685,-5.3062,-5.307,-5.3077,0,0,0,0,0,0,-5.2637,-5.2652,-5.2761,-5.27,-5.2711,-5.2671,-5.2711,-5.2701,-5.272,-5.2689,-5.268,-5.2677,-5.2665,-5.2674,-5.2779,-5.2868,-5.2685,-5.269,-5.3055,-5.3065,-5.3074,-5.3243,0,0,0,0,0,0,-5.2632,-5.2651,-5.2713,-5.2702,-5.2715,-5.2857,-5.2717,-5.2706,-5.2732,-5.2716,-5.2713,-5.2706,-5.2661,-5.277,-5.2785,-5.2873,-5.2695,-5.3046,-5.3059,-5.307,-5.3229,-5.3257,-5.3281,0,0,0,0,0,-5.2627,-5.276,-5.2717,-5.2732,-5.2791,-5.2863,-5.287,-5.2815,-5.274,-5.28,-5.278,-5.2706,-5.2856,-5.2782,-5.2798,-5.2889,-5.3041,-5.3055,-5.307,-5.3217,-5.3252,-5.3281,0,0,0,0,0,0,-5.2781,-5.2757,-5.2709,-5.2842,-5.2856,-5.2838,-5.2913,-5.2854,-5.2888,-5.2873,-5.2803,-5.2804,-5.292,-5.2914,-5.2833,-5.3043,-5.2935,-5.2953,-5.3042,-5.3074,-5.3099,-5.3098,-5.2701,0,0,0,0,0,-5.2831,-5.2892,-5.2867,-5.2987,-5.2997,-5.2954,-5.2984,-5.2941,-5.2951,-5.2956,-5.2943,-5.2956,-5.3005,-5.3039,-5.3083,-5.3228,-5.3224,-5.3298,-5.3324,-5.3346,-5.3362,-5.3437,-5.3469,-5.3125,-5.3125,-5.3124,0,0,-5.2934,-5.2928,-5.2971,-5.3018,-5.3023,-5.3087,-5.296,-5.3033,-5.308,-5.2967,-5.3065,-5.3056,-5.3065,-5.3191,-5.3245,-5.319,-5.3457,-5.3364,-5.3382,-5.3386,-5.3455,-5.3488,-5.3517,-5.3135,-5.3133,-5.3131,0,0,-5.3154,-5.3156,-5.3256,-5.3264,-5.3273,-5.3244,-5.3268,-5.326,-5.325,-5.3347,-5.3263,-5.3317,-5.3404,-5.3414,-5.343,-5.3653,-5.3587,-5.367,-5.3805,-5.3878,-5.3906,-5.3929,-5.4007,-5.4036,-5.3686,-5.3687,-5.3687,0,-5.328,-5.3374,-5.3314,-5.3393,-5.3415,-5.3317,-5.3416,-5.3427,-5.345,-5.3468,-5.3406,-5.3512,-5.3512,-5.3637,-5.3691,-5.3708,-5.3733,-5.3669,-5.3907,-5.393,-5.3951,-5.4025,-5.4054,-5.3697,-5.3695,-5.3694,-5.3694,0,-5.3528,-5.3594,-5.3673,-5.3699,-5.373,-5.3819,-5.3772,-5.3811,-5.3765,-5.3742,-5.3841,-5.3838,-5.3878,-5.3905,-5.3861,-5.4024,-5.3989,-5.3919,-5.3808,-5.3995,-5.4063,-5.4091,-5.3711,-5.3707,-5.3704,-5.3702,0,0,-5.3845,-5.3836,-5.3866,-5.3876,-5.3879,-5.3928,-5.4012,-5.4052,-5.4086,-5.4106,-5.4173,-5.4249,-5.4183,-5.4202,-5.4158,-5.4223,-5.4398,-5.4144,-5.4143,-5.419,-5.4576,-5.4628,-5.4662,-5.4355,-5.436,-5.4364,-5.4574,0,-5.4059,-5.4202,-5.415,-5.4296,-5.4355,-5.4263,-5.4335,-5.4345,-5.4326,-5.4372,-5.435,-5.4405,-5.4315,-5.4325,-5.4385,-5.4365,-5.4475,-5.4349,-5.4415,-5.4419,-5.4415,-5.4697,-5.4753,-5.4952,-5.4601,-5.4605,-5.4608,0,-5.4327,-5.4357,-5.4509,-5.4501,-5.4524,-5.459,-5.4622,-5.4669,-5.4677,-5.4658,-5.4679,-5.4621,-5.4702,-5.4593,-5.4702,-5.4617,-5.4642,-5.4636,-5.4642,-5.4645,-5.4524,-5.4707,-5.5014,-5.5044,-5.465,-5.4647,-5.4644,0,-5.4541,-5.462,-5.4721,-5.4732,-5.4725,-5.4774,-5.4773,-5.4775,-5.4802,-5.483,-5.4847,-5.4884,-5.4904,-5.4934,-5.4887,-5.4812,-5.5002,-5.4889,-5.4988,-5.4989,-5.5031,-5.5029,-5.5345,-5.505,-5.5049,-5.5049,-5.5048,0,-5.4784,-5.4881,-5.4817,-5.4879,-5.4983,-5.4923,-5.5028,-5.5016,-5.5019,-5.5076,-5.4999,-5.5054,-5.4989,-5.5038,-5.5002,-5.5097,-5.5107,-5.5093,-5.5082,-5.51,-5.5101,-5.5114,-5.5098,-5.5056,-5.5055,-5.5053,-5.5052,0,-5.5041,-5.5003,-5.5106,-5.5091,-5.5089,-5.5167,-5.5153,-5.5209,-5.5185,-5.5258,-5.5272,-5.5233,-5.5286,-5.5243,-5.5295,-5.527,-5.5396,-5.5366,-5.5393,-5.5385,-5.5485,-5.5475,-5.5819,-5.586,-5.554,-5.5543,-5.5546,0,-5.5198,-5.527,-5.5263,-5.5295,-5.53,-5.5354,-5.5381,-5.5324,-5.5355,-5.5369,-5.5423,-5.547,-5.5504,-5.5594,-5.557,-5.5609,-5.5578,-5.5696,-5.5584,-5.5599,-5.5578,-5.5574,-5.558,-5.5719,-5.5723,-5.5726,-5.5728,0,-5.548,-5.5457,-5.5499,-5.5535,-5.557,-5.5595,-5.5614,-5.5645,-5.5587,-5.5626,-5.5679,-5.5706,-5.5759,-5.5806,-5.5837,-5.5835,-5.5772,-5.5764,-5.5788,-5.5806,-5.5818,-5.5811,-5.5454,-5.5756,-5.5753,-5.5751,-5.575,-5.5749,-5.569,-5.5749,-5.5753,-5.5802,-5.5811,-5.583,-5.5881,-5.5863,-5.5907,-5.5946,-5.5909,-5.5974,-5.5979,-5.6014,-5.602,-5.6069,-5.602,-5.6056,-5.6065,-5.6074,-5.6088,-5.5812,-5.6075,-5.6074,-5.6073,-5.6072,-5.6072,0,-5.5967,-5.5965,-5.6011,-5.604,-5.6078,-5.6016,-5.6033,-5.607,-5.6127,-5.6138,-5.6173,-5.6234,-5.6279,-5.6259,-5.6298,-5.6341,-5.6313,-5.6353,-5.6349,-5.6349,-5.613,-5.6104,-5.6375,-5.6375,-5.6375,-5.6375,-5.6375,-5.6375,-5.6115,-5.6211,-5.6189,-5.6287,-5.6284,-5.6347,-5.6362,-5.6379,-5.6386,-5.6458,-5.6495,-5.6482,-5.648,-5.6518,-5.6556,-5.6549,-5.6566,-5.6617,-5.6599,-5.6395,-5.6365,-5.6336,-5.6311,-5.6622,-5.6622,-5.6814,-5.6815,-5.6817]},{"header":{"parameterUnit":"m.s-1","parameterCategory":1,"la1":30.2991,"la2":30.254,"lo1":-89.0895,"lo2":-89.0444,"dy":0.0017,"dx":0.0017,"nx":28,"ny":28,"refTime":"2023-09-20T21:00:00:Z","depth":0,"parameterNumber":3,"parameterNumberName":"V-component_of_WINDS"},"data":[0,0,0,0,0,0,0,0,0,0,0,0,0,0,0,0,0,0,0,0,0,0,0,0,0,0,0,0,0,0,0,0,0,0,0,0,0,0,0,0,0,0,0,0,0,0,0,0,0,0,0,0,0,0,0,0,0,0,-1.9976,-1.9977,0,-2.0054,-2.0055,-2.0056,-2.0058,-2.0057,-2.0056,-2.0055,-2.0134,-2.0136,-2.0139,0,0,0,0,0,0,0,0,0,0,0,0,0,-1.9825,-1.9827,-1.9976,-1.9977,-1.9978,-2.0054,-2.0055,-2.0056,-2.0058,-2.0057,-2.0056,-2.0055,-2.0133,-2.0136,-2.014,0,0,0,0,0,0,0,0,0,0,0,0,0,-1.9895,-1.9828,-1.9976,-1.9988,-1.999,-2.0054,-2.0055,-2.0056,-2.0058,-2.0057,-2.0055,-2.0054,-2.0131,-2.0136,-2.014,-2.0197,0,0,-2.0154,-2.0156,0,0,0,0,0,0,0,0,-1.9891,-1.9901,-1.9985,-1.9987,-1.9989,-2.0045,-2.0031,-2.0103,-2.0059,-2.0032,-2.0055,-2.0053,-2.0105,-2.0112,-2.0129,-2.02,-2.0204,-2.0154,-2.0157,-2.0159,-2.016,0,0,0,0,0,0,0,-1.9886,-1.9897,-2.0007,-1.9986,-1.9989,-1.9988,-1.9997,-2.0044,-2.0076,-2.0034,-2.0035,-2.0044,-2.0106,-2.0125,-2.0131,-2.0205,-2.0154,-2.0158,-2.0161,-2.0163,-2.0323,-2.0325,0,0,0,0,0,0,-1.9879,-1.9893,-2.0004,-2.0009,-1.9936,-1.9992,-2.0002,-2.0028,-2.0075,-2.0081,-2.0045,-2.0044,-2.0118,-2.0126,-2.0134,-2.0202,-2.0159,-2.0163,-2.0166,-2.0322,-2.0324,-2.0325,0,0,0,0,0,0,-1.9876,-1.9889,-2.0001,-1.9951,-1.9966,-1.9996,-2.0026,-2.0031,-2.005,-2.0083,-2.0089,-2.0059,-2.0117,-2.0128,-2.0181,-2.0204,-2.0165,-2.0169,-2.032,-2.0322,-2.0325,-2.0338,0,0,0,0,0,0,-1.9872,-1.9888,-1.9911,-1.9952,-1.9968,-2.0047,-2.0028,-2.0033,-2.0058,-2.0057,-2.0098,-2.0103,-2.0117,-2.0174,-2.0185,-2.021,-2.0173,-2.0318,-2.0321,-2.0324,-2.0336,-2.0341,-2.0345,0,0,0,0,0,-1.9866,-1.9912,-1.9912,-1.9925,-1.9997,-2.0049,-2.0058,-2.0073,-2.006,-2.0082,-2.0103,-2.0102,-2.02,-2.0179,-2.0192,-2.0218,-2.0316,-2.032,-2.0324,-2.0334,-2.034,-2.0345,0,0,0,0,0,0,-1.9872,-1.9917,-1.9918,-1.9978,-2.001,-2.0049,-2.0078,-2.008,-2.0115,-2.0113,-2.0129,-2.0139,-2.0191,-2.021,-2.0186,-2.0274,-2.0257,-2.0263,-2.026,-2.0266,-2.0271,-2.0265,-2.0176,0,0,0,0,0,-1.9881,-1.992,-1.9957,-2.0006,-2.0022,-2.0047,-2.007,-2.0079,-2.0112,-2.0125,-2.015,-2.0182,-2.0219,-2.0244,-2.028,-2.0339,-2.0347,-2.0363,-2.0367,-2.0371,-2.0376,-2.0406,-2.0414,-2.0337,-2.0337,-2.0337,0,0,-1.9898,-1.9928,-1.9951,-2.0008,-2.0033,-2.0072,-2.0058,-2.01,-2.0128,-2.0131,-2.0182,-2.0202,-2.0238,-2.0293,-2.0319,-2.0311,-2.0399,-2.0376,-2.0378,-2.0382,-2.0411,-2.0418,-2.0424,-2.034,-2.0339,-2.0339,0,0,-1.995,-1.9977,-2.002,-2.0046,-2.0084,-2.01,-2.0111,-2.0149,-2.0162,-2.0214,-2.0216,-2.025,-2.0315,-2.034,-2.0361,-2.042,-2.042,-2.0432,-2.0456,-2.0485,-2.0491,-2.0496,-2.0516,-2.0523,-2.0437,-2.0437,-2.0437,0,-1.9967,-2.0026,-2.0042,-2.0084,-2.0108,-2.0112,-2.0155,-2.0178,-2.0227,-2.0242,-2.0233,-2.0313,-2.0338,-2.0398,-2.0412,-2.043,-2.0441,-2.0427,-2.0489,-2.0495,-2.05,-2.0519,-2.0526,-2.0438,-2.0438,-2.0437,-2.0437,0,-2.0044,-2.0085,-2.0115,-2.0162,-2.0189,-2.0231,-2.0252,-2.0277,-2.0283,-2.03,-2.0351,-2.0381,-2.0423,-2.0438,-2.0444,-2.0498,-2.0492,-2.0486,-2.0468,-2.0508,-2.0526,-2.0533,-2.0439,-2.0439,-2.0439,-2.0438,0,0,-2.0103,-2.0156,-2.0167,-2.0187,-2.0229,-2.0261,-2.0302,-2.0343,-2.0364,-2.0397,-2.0431,-2.0485,-2.0478,-2.0502,-2.0511,-2.0537,-2.058,-2.0527,-2.0528,-2.0535,-2.0639,-2.0643,-2.0652,-2.058,-2.0581,-2.0583,-2.0636,0,-2.0158,-2.0233,-2.0247,-2.0311,-2.0348,-2.0351,-2.0387,-2.0416,-2.0432,-2.0465,-2.0483,-2.052,-2.051,-2.0524,-2.055,-2.0569,-2.0601,-2.0566,-2.061,-2.0612,-2.0601,-2.0661,-2.0666,-2.0715,-2.0643,-2.0644,-2.0645,0,-2.0233,-2.0267,-2.0335,-2.037,-2.0386,-2.0418,-2.0456,-2.0488,-2.052,-2.053,-2.0556,-2.0561,-2.0603,-2.0583,-2.064,-2.0615,-2.0634,-2.0646,-2.0649,-2.0653,-2.0631,-2.0666,-2.0731,-2.0738,-2.0657,-2.0656,-2.0655,0,-2.0267,-2.033,-2.0378,-2.0396,-2.0439,-2.0461,-2.0479,-2.051,-2.0533,-2.0566,-2.0581,-2.0618,-2.0638,-2.0666,-2.068,-2.0665,-2.0735,-2.0717,-2.0743,-2.0743,-2.0758,-2.0757,-2.0826,-2.0771,-2.0771,-2.0771,-2.0771,0,-2.0327,-2.0368,-2.0394,-2.0424,-2.0469,-2.0484,-2.0529,-2.0547,-2.0574,-2.0606,-2.0611,-2.0641,-2.0659,-2.0691,-2.0703,-2.0747,-2.0756,-2.0764,-2.0767,-2.0764,-2.0762,-2.0776,-2.0772,-2.0773,-2.0773,-2.0772,-2.0772,0,-2.0373,-2.0392,-2.0445,-2.0481,-2.049,-2.0522,-2.0552,-2.058,-2.0596,-2.0636,-2.0647,-2.0671,-2.0709,-2.0727,-2.0774,-2.0781,-2.0831,-2.0832,-2.082,-2.0821,-2.0845,-2.0842,-2.0925,-2.0936,-2.0875,-2.0876,-2.0876,0,-2.0409,-2.0441,-2.048,-2.0502,-2.0521,-2.0557,-2.058,-2.0596,-2.062,-2.0657,-2.068,-2.0718,-2.075,-2.081,-2.0831,-2.0866,-2.0867,-2.0894,-2.0872,-2.0867,-2.0866,-2.0864,-2.0866,-2.0897,-2.0898,-2.0898,-2.0899,0,-2.0471,-2.0479,-2.0513,-2.055,-2.0578,-2.0607,-2.0637,-2.0654,-2.0674,-2.07,-2.0739,-2.0763,-2.0811,-2.0848,-2.0884,-2.0902,-2.0903,-2.0905,-2.0913,-2.0909,-2.0901,-2.0904,-2.083,-2.0903,-2.0903,-2.0902,-2.0902,-2.0902,-2.0513,-2.054,-2.0572,-2.0609,-2.0632,-2.0659,-2.0686,-2.0705,-2.0738,-2.0778,-2.0785,-2.0826,-2.0855,-2.0904,-2.0923,-2.0954,-2.0948,-2.096,-2.0962,-2.0965,-2.0965,-2.0897,-2.0961,-2.0961,-2.0961,-2.0961,-2.0961,0,-2.0574,-2.0594,-2.0628,-2.0668,-2.0697,-2.0696,-2.0728,-2.0751,-2.0787,-2.0815,-2.0845,-2.0889,-2.0924,-2.0948,-2.0983,-2.1004,-2.1005,-2.1012,-2.1011,-2.1014,-2.097,-2.0959,-2.1011,-2.1011,-2.1011,-2.1011,-2.1011,-2.1011,-2.061,-2.0655,-2.0666,-2.0723,-2.0743,-2.0783,-2.0801,-2.0825,-2.0847,-2.0895,-2.0925,-2.094,-2.0965,-2.1002,-2.1034,-2.104,-2.1053,-2.106,-2.1066,-2.1023,-2.1018,-2.1013,-2.1003,-2.1063,-2.1063,-2.1108,-2.1108,-2.1108]}]]